When you browse on this site, cookies collect data to enhance your experience and personalize the content and advertising you see.
Visit our Privacy Policy to learn more. By continuing to use the site, you agree to this use of cookies and data.
  • In Österreich
  • Länderverzeichnis
  • Für 7 Tage
  • Wassertemperatur
  • Wetterkarte
  • News
  • Widgets
  • user-avatar
    Anmelden

    Stündliche Wetter Río Gallegos

    Heute, 15 Dezember, Sonntag

    Zeit Temperatur Niederschläge Wind Luftdruck Luftfeuchtigkeit
    00:00 +10°C° 0 mm 9 m/S 749 mmHg 64%
    01:00 +8°C° 0 mm 10 m/S 749 mmHg 63%
    02:00 +8°C° 0 mm 11 m/S 749 mmHg 64%
    03:00 +8°C° 0 mm 11 m/S 750 mmHg 65%
    04:00 +8°C° 0 mm 12 m/S 750 mmHg 66%
    05:00 +8°C° 0 mm 12 m/S 750 mmHg 65%
    06:00 +8°C° 0 mm 12 m/S 750 mmHg 64%
    07:00 +9°C° 0 mm 10 m/S 750 mmHg 61%
    08:00 +9°C° 0.1 mm 10 m/S 750 mmHg 62%
    09:00 +9°C° 0.1 mm 10 m/S 750 mmHg 64%
    10:00 +9°C° 0.1 mm 10 m/S 750 mmHg 65%
    11:00 +12°C° 0.1 mm 11 m/S 750 mmHg 58%
    12:00 +13°C° 0.1 mm 12 m/S 750 mmHg 52%
    13:00 +14°C° 0.1 mm 13 m/S 749 mmHg 45%
    14:00 +14°C° 0 mm 13 m/S 749 mmHg 45%
    15:00 +13°C° 0 mm 14 m/S 749 mmHg 45%
    16:00 +13°C° 0 mm 14 m/S 750 mmHg 45%
    17:00 +12°C° 0 mm 14 m/S 750 mmHg 50%
    18:00 +10°C° 0 mm 14 m/S 750 mmHg 54%
    19:00 +9°C° 0 mm 14 m/S 751 mmHg 59%
    20:00 +9°C° 0 mm 13 m/S 751 mmHg 61%
    21:00 +8°C° 0 mm 13 m/S 752 mmHg 64%
    22:00 +7°C° 0 mm 12 m/S 752 mmHg 67%
    23:00 +7°C° 0 mm 12 m/S 752 mmHg 68%

    Morgen, 16 Dezember, Montag

    Zeit Temperatur Niederschläge Wind Luftdruck Luftfeuchtigkeit
    00:00 +7°C° 0 mm 12 m/S 753 mmHg 70%
    01:00 +7°C° 0 mm 12 m/S 753 mmHg 71%
    02:00 +7°C° 0.2 mm 13 m/S 753 mmHg 72%
    03:00 +5°C° 0.2 mm 13 m/S 753 mmHg 73%
    04:00 +5°C° 0.2 mm 13 m/S 754 mmHg 74%
    05:00 +7°C° 0.2 mm 13 m/S 754 mmHg 72%
    06:00 +7°C° 0.2 mm 13 m/S 754 mmHg 71%
    07:00 +7°C° 0.2 mm 13 m/S 754 mmHg 70%
    08:00 +8°C° 0.1 mm 13 m/S 754 mmHg 63%
    09:00 +9°C° 0.1 mm 13 m/S 754 mmHg 57%
    10:00 +10°C° 0.1 mm 12 m/S 754 mmHg 50%
    11:00 +12°C° 0.1 mm 12 m/S 754 mmHg 48%
    12:00 +13°C° 0.1 mm 11 m/S 753 mmHg 45%
    13:00 +13°C° 0.1 mm 10 m/S 753 mmHg 43%
    14:00 +13°C° 0.1 mm 10 m/S 753 mmHg 42%
    15:00 +15°C° 0.1 mm 9 m/S 753 mmHg 42%
    16:00 +15°C° 0.1 mm 8 m/S 753 mmHg 41%
    17:00 +14°C° 0 mm 7 m/S 752 mmHg 47%
    18:00 +13°C° 0 mm 6 m/S 752 mmHg 54%
    19:00 +12°C° 0 mm 5 m/S 752 mmHg 60%
    20:00 +10°C° 0.9 mm 5 m/S 752 mmHg 69%
    21:00 +10°C° 0.9 mm 4 m/S 752 mmHg 77%
    22:00 +8°C° 0.9 mm 4 m/S 751 mmHg 86%
    23:00 +8°C° 0.9 mm 4 m/S 750 mmHg 87%

    übermorgen, 17 Dezember, Dienstag

    Zeit Temperatur Niederschläge Wind Luftdruck Luftfeuchtigkeit
    00:00 +9°C° 0.9 mm 5 m/S 750 mmHg 87%
    01:00 +9°C° 0.9 mm 6 m/S 749 mmHg 88%
    02:00 +9°C° 0.8 mm 7 m/S 748 mmHg 86%
    03:00 +9°C° 0.8 mm 7 m/S 748 mmHg 84%
    04:00 +9°C° 0.8 mm 7 m/S 747 mmHg 82%
    05:00 +9°C° 0.3 mm 6 m/S 746 mmHg 79%
    06:00 +10°C° 0.3 mm 5 m/S 746 mmHg 77%
    07:00 +10°C° 0.3 mm 5 m/S 745 mmHg 74%
    08:00 +12°C° 0.1 mm 5 m/S 745 mmHg 69%
    09:00 +14°C° 0.1 mm 6 m/S 744 mmHg 64%
    10:00 +15°C° 0.1 mm 6 m/S 743 mmHg 58%
    11:00 +15°C° 0 mm 5 m/S 742 mmHg 58%
    12:00 +15°C° 0 mm 4 m/S 742 mmHg 59%
    13:00 +16°C° 0 mm 3 m/S 741 mmHg 59%
    14:00 +15°C° 0.1 mm 4 m/S 740 mmHg 60%
    15:00 +14°C° 0.1 mm 5 m/S 739 mmHg 62%
    16:00 +14°C° 0.1 mm 7 m/S 738 mmHg 64%
    17:00 +14°C° 0.3 mm 7 m/S 737 mmHg 66%
    18:00 +14°C° 0.3 mm 7 m/S 736 mmHg 67%
    19:00 +14°C° 0.3 mm 7 m/S 735 mmHg 68%
    20:00 +12°C° 0 mm 8 m/S 735 mmHg 66%
    21:00 +12°C° 0 mm 9 m/S 735 mmHg 63%
    22:00 +11°C° 0 mm 9 m/S 735 mmHg 61%
    23:00 +9°C° 0 mm 10 m/S 735 mmHg 64%

    18 Dezember, Mittwoch

    Zeit Temperatur Niederschläge Wind Luftdruck Luftfeuchtigkeit
    00:00 +9°C° 0 mm 10 m/S 735 mmHg 67%
    01:00 +8°C° 0 mm 11 m/S 735 mmHg 70%
    02:00 +8°C° 0 mm 10 m/S 735 mmHg 71%
    03:00 +8°C° 0 mm 9 m/S 735 mmHg 73%
    04:00 +7°C° 0 mm 9 m/S 736 mmHg 74%
    05:00 +8°C° 0 mm 11 m/S 736 mmHg 67%
    06:00 +9°C° 0 mm 13 m/S 737 mmHg 60%
    07:00 +10°C° 0 mm 15 m/S 737 mmHg 53%
    08:00 +12°C° 0 mm 14 m/S 737 mmHg 49%
    09:00 +13°C° 0 mm 14 m/S 737 mmHg 44%
    10:00 +14°C° 0 mm 13 m/S 737 mmHg 40%
    11:00 +14°C° 0.1 mm 14 m/S 738 mmHg 44%
    12:00 +13°C° 0.1 mm 14 m/S 738 mmHg 49%
    13:00 +13°C° 0.1 mm 15 m/S 738 mmHg 53%
    14:00 +12°C° 0.2 mm 14 m/S 739 mmHg 53%
    15:00 +12°C° 0.2 mm 14 m/S 740 mmHg 53%
    16:00 +12°C° 0.2 mm 14 m/S 741 mmHg 52%
    17:00 +10°C° 0 mm 13 m/S 741 mmHg 54%
    18:00 +10°C° 0 mm 12 m/S 742 mmHg 56%
    19:00 +9°C° 0 mm 12 m/S 743 mmHg 58%
    20:00 +8°C° 0 mm 10 m/S 744 mmHg 60%
    21:00 +8°C° 0 mm 9 m/S 744 mmHg 63%
    22:00 +8°C° 0 mm 7 m/S 745 mmHg 66%
    23:00 +8°C° 0 mm 7 m/S 745 mmHg 67%

    19 Dezember, Donnerstag

    Zeit Temperatur Niederschläge Wind Luftdruck Luftfeuchtigkeit
    00:00 +8°C° 0 mm 7 m/S 746 mmHg 68%
    01:00 +6°C° 0 mm 7 m/S 746 mmHg 68%
    02:00 +6°C° 0 mm 7 m/S 747 mmHg 68%
    03:00 +6°C° 0 mm 7 m/S 747 mmHg 68%
    04:00 +6°C° 0 mm 8 m/S 748 mmHg 69%
    05:00 +7°C° 0 mm 9 m/S 748 mmHg 63%
    06:00 +8°C° 0 mm 10 m/S 749 mmHg 58%
    07:00 +8°C° 0 mm 11 m/S 750 mmHg 53%
    08:00 +11°C° 0 mm 11 m/S 750 mmHg 47%
    09:00 +12°C° 0 mm 11 m/S 751 mmHg 42%
    10:00 +13°C° 0 mm 11 m/S 751 mmHg 36%
    11:00 +13°C° 0 mm 10 m/S 751 mmHg 36%
    12:00 +14°C° 0 mm 10 m/S 752 mmHg 35%
    13:00 +14°C° 0 mm 10 m/S 752 mmHg 35%
    14:00 +15°C° 0 mm 9 m/S 752 mmHg 36%
    15:00 +15°C° 0 mm 9 m/S 752 mmHg 36%
    16:00 +15°C° 0 mm 8 m/S 753 mmHg 36%
    17:00 +14°C° 0 mm 7 m/S 753 mmHg 40%
    18:00 +14°C° 0 mm 6 m/S 754 mmHg 44%
    19:00 +13°C° 0 mm 6 m/S 754 mmHg 47%
    20:00 +12°C° 0 mm 5 m/S 755 mmHg 52%
    21:00 +12°C° 0 mm 5 m/S 755 mmHg 57%
    22:00 +11°C° 0 mm 4 m/S 755 mmHg 62%
    23:00 +11°C° 0 mm 4 m/S 756 mmHg 65%

    20 Dezember, Freitag

    Zeit Temperatur Niederschläge Wind Luftdruck Luftfeuchtigkeit
    00:00 +10°C° 0 mm 4 m/S 756 mmHg 68%
    01:00 +10°C° 0 mm 4 m/S 756 mmHg 71%
    02:00 +10°C° 0 mm 4 m/S 756 mmHg 71%
    03:00 +10°C° 0 mm 3 m/S 756 mmHg 71%
    04:00 +9°C° 0 mm 3 m/S 756 mmHg 71%
    05:00 +9°C° 0 mm 5 m/S 757 mmHg 64%
    06:00 +11°C° 0 mm 7 m/S 757 mmHg 57%
    07:00 +12°C° 0 mm 8 m/S 757 mmHg 50%
    08:00 +12°C° 0 mm 8 m/S 757 mmHg 48%
    09:00 +13°C° 0 mm 8 m/S 757 mmHg 46%
    10:00 +15°C° 0 mm 8 m/S 758 mmHg 44%
    11:00 +15°C° 0 mm 7 m/S 758 mmHg 44%
    12:00 +15°C° 0 mm 6 m/S 757 mmHg 44%
    13:00 +16°C° 0 mm 5 m/S 757 mmHg 44%
    14:00 +15°C° 0 mm 5 m/S 757 mmHg 46%
    15:00 +15°C° 0 mm 5 m/S 757 mmHg 48%
    16:00 +15°C° 0 mm 5 m/S 757 mmHg 50%
    17:00 +14°C° 0 mm 4 m/S 757 mmHg 52%
    18:00 +14°C° 0 mm 4 m/S 757 mmHg 53%
    19:00 +13°C° 0 mm 3 m/S 757 mmHg 55%
    20:00 +13°C° 0 mm 3 m/S 757 mmHg 58%
    21:00 +12°C° 0 mm 3 m/S 757 mmHg 61%
    22:00 +11°C° 0 mm 3 m/S 757 mmHg 64%
    23:00 +11°C° 0 mm 3 m/S 757 mmHg 68%
    Mehr zeigen